Location: Belmont
(13.0833°N, 59.6000°W)
Time: 09:31:18
(UTC+00:00)

Meteor 2-15 - Pass Details

Date: 17 September 2019
Orbit: 936 x 956 km, 82.5° (Epoch: 19 October)

Event Time Altitude Azimuth Distance (km) Brightness Sun altitude
Rises 22:27:42 0° 178° (S) 3,607 7.4 -8.0°
Reaches altitude 10° 22:30:11 10° 175° (S) 2,665 6.7 -8.6°
Maximum altitude 22:36:14 69° 93° (E) 1,015 4.4 -10.1°
Drops below altitude 10° 22:42:19 10° 11° (N) 2,677 6.7 -11.6°
Sets 22:44:50 0° 9° (N) 3,624 7.5 -12.2°
